Find Starlink 34468

NORAD ID: 64424 Int'l Des: 2025-129 Owner: SPXS Country: US Constellation: starlink operational
LEOCIRCULAR

当前视图

正在加载3D地球...

About Starlink 34468

Starlink 34468 (NORAD 64424) is a starlink constellation satellite (v2 mini) launched Jun 17, 2025 by SPXS of US. It operates in LEO, CIRCULAR orbit with a mass of 575.00 kg.

即将过境

Passes for default location (London). Set your location on the main map for personalized predictions.

高度历史

Loading altitude history...

两行轨道根数

1 64424U 25129N 26263.48544491 .00007660 00000-0 27056-3 0 9999
2 64424 70.0004 301.0009 0003571 267.1284 92.9483 15.29587752 70522
Epoch: Sep 20, 2026 • Age: 21 hours

当前状态

高度 482.3 km
远地点 / 近地点 N/A
速度 7.62 km/s
星下点 -17.15°S, 8.94°W
发射日期 Jun 17, 2025
运行时间 1.2 years
类型 internet

技术详情

分类 Payload
质量 575.00 kg
干质量 530.00 kg
长度 0.30 m
跨度 29.00 m
形状 ? Box + pan
制造商 SPXS
平台类型 Starlink V2MO
阶段状态 In Orbit
所有者/国家 SPXS/US

Most Searched